Ariane Rocket - Orbit

View from above orbital plane
View from above orbital plane
View from above satellite
View from above satellite

Ground track
Ground track

The orbit data is extracted from the following two-line orbital elements,

1 23561U 95021B   13145.83144203  .00000309  00000-0  11944-3 0  4891
2 23561 098.6292 104.7753 0006345 343.9770 072.0599 14.36946699948148
Epoch (UTC): 25 May 2013 19:57:16
Eccentricity: 0.0006345
inclination: 98.6292°
perigee height: 764 km
apogee height: 773 km
right ascension of ascending node: 104.7753°
argument of perigee: 343.9770°
revolutions per day: 14.36946699
mean anomaly at epoch: 72.0599°
orbit number at epoch: 94814

The dashed part of the orbit path shows where the satellite is in the earth's shadow,  

Developed and maintained by Chris Peat, Heavens-Above GmbH. Please read the updated FAQ before sending e-mail. Imprint. DLR